Погода в Энгозере

Россия / Республика Карелия     65°47′21″N   33°56′33″E
темп.,
°C
ветер,
м/с
пор.,
м/с
влажн.,
%
обл.,
%
осадки,
мм/ч
давл.,
гПа
погр.,
м
7 мая, пт
пт700:000всв71478100 0.0 1000907
03:00−1св91795100 4.8 9951002
06:00−1всв91796100 15.4 9901168
09:00+1вюв61298100 18.0 988821
12:00+1юв71294100 0.3 9891024
15:00+1ю81495100 0.8 9901102
18:00+1ююз81387100 0.6 9941226
21:000ююз6128653 0.7 998876
8 мая, сб
сб800:00−1ююз5129118 0.0 1001546
03:00−2ююз411935 0.0 1003358
06:00−2ю399653 0.0 1004278
09:00+2ю369493 0.0 1005553
12:00+3ю3895100 0.2 1006783
15:00+4ю1398100 0.4 1006309
18:00+2ссз34100100 0.1 1006191
21:00+2ссз34100100 1.1 1005291
9 мая, вс
вс900:00+1ссз3799100 0.2 1004392
03:000ссз3996100 0.0 1005357
06:000сз41189100 0.0 1004510
09:00+2зсз41085100 0.0 1004661
12:00+4з598187 0.0 1005941
15:00+6з587143 0.1 10061415
18:00+6з58735 0.1 10071101
21:00+2зюз310860 0.1 1008246
10 мая, пн
пн1000:00+1зюз311914 0.0 1010250
03:00−1зюз311920 0.0 1011236
06:00+1юз39885 0.0 1012229
09:00+6юз47695 0.0 1013454
12:00+9юз45577 0.0 10141187
15:00+10ююз455671 0.0 10141696
18:00+8юз4778100 0.2 1015679
21:00+6ююз3689100 0.2 1013598
11 мая, вт
вт1100:00+5ююв2598100 0.6 1013289
03:00+5юв13100100 3.9 1012122
06:00+5вюв1199100 1.3 101259
09:00+5вюв1199100 2.1 101355
12:00+8ююз249699 1.6 1014204
15:00+10в1195100 1.6 101424
18:00+9вюв2399100 0.2 101570
21:00+9юв2399100 0.4 101561